Regional Weather Roundup
Issued by NWS Memphis, TN

Home | Current Version | Previous Version | Text Only | Print | Product List | Glossary On
Versions: 1 2 3 4 5 6 7 8 9 10 11 12 13 14 15 16 17 18 19 20 21 22 23 24 25 26 27 28 29 30 31 32 33 34 35 36 37 38 39 40 41 42 43 44 45 46 47 48 49 50
000
ASUS44 KMEG 212310
RWRMEG
MEMPHIS CWA HOURLY WEATHER ROUNDUP
NATIONAL WEATHER SERVICE MEMPHIS TN
600 PM CDT SAT APR 21 2018

...WEST TENNESSEE...

CITY           SKY/WX    TMP DP  RH WIND       PRES   REMARKS
MEMPHIS INTL   CLOUDY    73  44  35 SE6       30.11S
NWS MEMPHIS      N/A     72 N/A N/A MISG        N/A
JACKSON        FAIR      73  38  27 SE6       30.13R
COVINGTON      SUNNY     73  41  31 SE6       30.12S
SOMERVILLE     SUNNY     73  43  33 VRB5      30.12R
BOLIVAR        SUNNY     73  43  33 SE7       30.13R
LEXINGTON      SUNNY     73  34  23 SE8G17    30.12S
SELMER         SUNNY     73  39  29 SE9       30.12R
DYERSBURG      FAIR      73  37  27 S5        30.14R
UNION CITY     SUNNY     73  36  25 SE5       30.12R
PARIS          SUNNY     73  32  21 SE7G17    30.13R
HUNTINGDON     SUNNY     73  32  21 VRB6G14   30.12R


...EASTERN ARKANSAS...

CITY           SKY/WX    TMP DP  RH WIND       PRES   REMARKS
JONESBORO      FAIR      71  46  40 SE8       30.09F
WEST MEMPHIS   FAIR      71  48  43 SE8       30.09S
BATESVILLE     CLOUDY    67  46  47 E7        30.09F
NEWPORT        FAIR      69  47  45 SE3       30.10S
WALNUT RIDGE   FAIR      70  44  39 E7        30.11F
BLYTHEVILLE    FAIR      73  38  27 S6        30.13R
SEARCY         FAIR      69  50  50 CALM      30.08S
STUTTGART      PTSUNNY   71  50  47 E7        30.05F
PINE BLUFF     FAIR      69  49  48 CALM      30.06R
MONTICELLO     FAIR      70  49  47 CALM      30.05R


...NORTH MISSISSIPPI...

CITY           SKY/WX    TMP DP  RH WIND       PRES   REMARKS
TUPELO         FAIR      75  48  38 SE10      30.12
OXFORD         FAIR      72  48  43 VRB5G13   30.12S
BATESVILLE       N/A    N/A N/A N/A MISG        N/A
OLIVE BRANCH   PTSUNNY   70  45  40 SE5       30.11R
TUNICA           N/A     72  46  40 E7        30.09F
CLARKSDALE     MOSUNNY   75  52  43 SE8       30.08R
CORINTH        FAIR      73  41  31 SE9G17    30.12R
GREENWOOD      CLOUDY    75  51  43 SE6       30.07S
COLUMBUS       PTSUNNY   74  54  48 S12       30.11R
STARKVILLE     PTSUNNY   72  54  53 S7        30.12R
GOLDEN TRIANGL PTSUNNY   74  54  49 SE13      30.12R


...SOUTHEAST MISSOURI...

CITY           SKY/WX    TMP DP  RH WIND       PRES   REMARKS
KENNETT        FAIR      73  36  25 SE7       30.12S HAZE
MALDEN         FAIR      72  34  25 S8        30.17R
WEST PLAINS    CLOUDY    67  34  29 VRB7      30.12F
POPLAR BLUFF   FAIR      69  41  36 CALM      30.16R
CAPE GIRARDEAU FAIR      68  43  40 SE5       30.16R


...NORTHWEST ALABAMA...

CITY           SKY/WX    TMP DP  RH WIND       PRES   REMARKS
MUSCLE SHOALS  FAIR      73  43  33 E10       30.14S


...MIDDLE TENNESSEE...

CITY           SKY/WX    TMP DP  RH WIND       PRES   REMARKS
NASHVILLE      PTSUNNY   74  32  21 VRB7      30.17F
CLARKSVILLE    FAIR      70  35  27 E10       30.15F
COLUMBIA       SUNNY     73  32  21 VRB7      30.13F
LEWISBURG      CLEAR     73  34  23 SE6       30.15S


...WESTERN KENTUCKY...

CITY           SKY/WX    TMP DP  RH WIND       PRES   REMARKS
PADUCAH        FAIR      71  35  26 E12       30.13R
FORT CAMPBELL  FAIR      71  37  29 E14       30.15F


...CENTRAL ARKANSAS...

CITY           SKY/WX    TMP DP  RH WIND       PRES   REMARKS
LITTLE ROCK    CLOUDY    67  52  58 E5        30.07S


SKY/WX REPORTED AS FAIR MEANS FEW OR NO CLOUDS BELOW
12 THOUSAND FEET.




USA.gov is the U.S. government's official web portal to all federal, state and local government web resources and services.